Flag for U.S.A. Weather past 2 weeks in Worcester, Massachusetts, U.S.A.

Now
59 °F

Passing clouds.


Feels Like: 58 °F
Forecast: 57 / 78 °F
Wind: 7 mph from West

Location: Worcester Regional Airport

Current Time: Jul 29, 2014 at 11:17:45 PM

Latest Report: Jul 29, 2014 at 10:54 PM


Visibility: 10 mi

Pressure: 29.96 "Hg

Humidity: 81%

Dew point: 53 °F

Location of WorcesterLocation

Historic Weather in Worcester — Graph

°F

Worcester temperature yesterday

Maximum temperature yesterday: 78 °F (at 3:54 PM)
Minimum temperature yesterday: 64 °F (at 12:54 AM)
Average temperature yesterday: 69 °F

Past Weeks' High & Low Weather Summary

 TemperatureHumidityPressure
High86 °F (Jul 23, 2:54 PM)100% (Jul 21, 6:54 AM)30.29 "Hg (Jul 21, 6:54 AM)
Low55 °F (Jul 25, 5:54 AM)36% (Jul 18, 4:54 PM)29.48 "Hg (Jul 28, 3:54 PM)
Average69 °F75%29.95 "Hg
* Reported Jul 14 9:02 PM — Jul 29 9:54 PM, Worcester, Weather by CustomWeather, © 2014

Note: Actual official high and low records may vary slightly from our data, if they occured in-between our weather recording intervals... More about our weather records

Advertising

Worcester weather history for previous 24 hours

 ConditionsComfort  
Time TempWeatherWind HumidityBarometerVisibility
9:54 PM
Jul 29
61 °FClear.8 mph75%29.96 "Hg10 mi
8:54 PM63 °FScattered clouds.6 mph70%29.94 "Hg10 mi
7:54 PM64 °FSunny.6 mph70%29.94 "Hg10 mi
6:54 PM68 °FPassing clouds.5 mph61%29.92 "Hg10 mi
5:54 PM69 °FSunny.10 mph57%29.90 "Hg10 mi
4:54 PM70 °FPartly sunny.8 mph55%29.89 "Hg10 mi
3:54 PM70 °FPassing clouds.9 mph57%29.87 "Hg10 mi
2:54 PM70 °FPartly sunny.10 mph57%29.85 "Hg10 mi
1:54 PM71 °FPassing clouds.8 mph51%29.84 "Hg10 mi
12:54 PM71 °FPassing clouds.13 mph55%29.84 "Hg10 mi
11:54 AM68 °FScattered clouds.10 mph61%29.83 "Hg10 mi
10:54 AM67 °FPassing clouds.10 mph66%29.82 "Hg10 mi
9:54 AM65 °FSunny.14 mph68%29.81 "Hg10 mi
8:54 AM63 °FSunny.12 mph75%29.79 "Hg10 mi
7:54 AM61 °FLow clouds.9 mph87%29.78 "Hg10 mi
6:54 AM60 °FMore clouds than sun.12 mph83%29.75 "Hg10 mi
6:04 AM59 °FMostly cloudy.3 mph90%29.75 "Hg10 mi
5:54 AM58 °FMostly cloudy.8 mph93%29.73 "Hg10 mi
4:54 AM59 °FPassing clouds.8 mph93%29.71 "Hg10 mi
3:54 AM59 °FClear.12 mph90%29.67 "Hg10 mi
2:54 AM61 °FClear.13 mph83%29.65 "Hg10 mi
1:54 AM62 °FClear.18 mph83%29.62 "Hg10 mi
12:54 AM63 °FPartly cloudy.17 mph81%29.60 "Hg10 mi
11:54 PM
Jul 28
64 °FPassing clouds.13 mph90%29.58 "Hg10 mi
Weather by CustomWeather, © 2014

See weather overviewHow to use our weather pages